Regional Weather Roundup
Issued by NWS

Home | Current Version | Previous Version | Text Only | Print | Product List | Glossary On
Versions: 1 2 3 4 5 6 7 8 9 10 11 12 13 14 15 16 17 18 19 20 21 22 23 24 25 26 27 28 29 30 31 32 33 34 35 36 37 38 39 40 41 42 43 44 45 46 47 48 49 50
000
ASUS43 KMPX 202010
RWRMN
WEATHER ROUNDUP FOR MINNESOTA
NATIONAL WEATHER SERVICE TWIN CITIES/CHANHASSEN MN
300 PM CDT WED AUG 20 2014


NOTE: "FAIR" INDICATES FEW OR NO CLOUDS BELOW 12,000 FEET WITH NO
SIGNIFICANT WEATHER AND/OR OBSTRUCTIONS TO VISIBILITY. N/A MEANS
CURRENT SKY AND/OR WEATHER CONDITIONS ARE NOT AVAILABLE.

MNZ060>063-068>070-202100-
   Twin Cities Metro

CITY           SKY/WX    TMP DP  RH WIND       PRES   REMARKS
TWIN CITIES    PTSUNNY   81  64  56 SE6       29.85F
ST PAUL        MOSUNNY   81  64  56 SE8       29.86F
CRYSTAL        PTSUNNY   82  63  52 VRB5      29.84F
BLAINE         PTSUNNY   81  66  61 E10       29.86F
LAKEVILLE      MOSUNNY   79  66  65 SE6       29.86S
EDEN PRAIRIE   PTSUNNY   81  65  58 SE5       29.84F
SOUTH ST PAUL  MOSUNNY   80  63  56 SE6       29.86F
LAKE ELMO      FAIR      79  64  61 CALM      29.87F
$$
MNZ001>005-007-008-013>017-022>024-027-028-202100-
   Northwest Minnesota

CITY           SKY/WX    TMP DP  RH WIND       PRES   REMARKS
BEMIDJI        PTSUNNY   76  62  62 E13       29.86S
HALLOCK        MOSUNNY   82  66  57 SE10      29.78S
ROSEAU         SUNNY     81  64  57 SE12      29.83S
WARROAD        MOSUNNY   79  66  65 E9        29.84S
THIEF RVR FALL MOSUNNY   81  63  54 SE8       29.82S
CROOKSTON      PTSUNNY   82  64  54 S13       29.81R
FOSSTON        PTSUNNY   81  64  57 SE8       29.84R
DETROIT LAKES  CLOUDY    81  63  54 S13       29.85S
MOORHEAD       CLOUDY    82  70  65 S10G16    29.80S
PARK RAPIDS    PTSUNNY   78  62  57 SE9       29.86R
MAHNOMEN       FAIR      79  66  64 SE5       29.83R
$$
MNZ006-009>011-018-025>026-202100-
   North Central Minnesota

CITY           SKY/WX    TMP DP  RH WIND       PRES   REMARKS
BAUDETTE       CLOUDY    76  60  57 SE7       29.87R
FLAG ISLAND    MOSUNNY   73  63  68 S7        29.85S
INTL FALLS     MOSUNNY   74  58  57 E8G17     29.88R
WASKISH        CLOUDY    75  64  69 CALM      29.87R
BIG FORK       MOSUNNY  N/A N/A N/A S6        29.89R
LONGVILLE      CLOUDY    75  63  64 E5        29.88R
GRAND RAPIDS   CLOUDY    72  59  64 SE6       29.90S
CRANE LAKE     CLOUDY    70  61  73 S3        29.91S
ORR            MOSUNNY   77  55  47 E3        29.86S
COOK           MOSUNNY   73  61  64 SE5       29.89S
WALKER         FAIR      73  64  71 E5        29.87S
$$
MNZ012-019>021-037-202100-
   Northeast Minnesota

CITY           SKY/WX    TMP DP  RH WIND       PRES   REMARKS
DULUTH         CLOUDY    70  57  63 SE8       29.92R
ELY            PTSUNNY   72  59  64 NE3       29.90F
HIBBING        CLOUDY    75  58  55 VRB7      29.89S
EVELETH        CLOUDY    72  59  64 CALM      29.91R
DULUTH HARBOR  MOSUNNY   72  64  78 NE5       29.91R
TWO HARBORS    PTSUNNY   70  57  64 SE5       29.89S
SILVER BAY     SUNNY     66  63  88 SE5       29.89S
GRAND MARAIS     N/A     63  60  90 NE5       29.91R
G MARAIS ARPRT CLOUDY    61  55  82 S5        29.95R
$$
MNZ029>031-032-039>041-046>048-054>057-064-202100-
   West Central Minnesota

CITY           SKY/WX    TMP DP  RH WIND       PRES   REMARKS
FERGUS FALLS   CLOUDY    81  63  54 S14       29.81S
WHEATON        PTSUNNY   77  66  69 SE16G24   29.81F
MORRIS         PTSUNNY   84  66  54 SE14      29.80F
ALEXANDRIA     CLOUDY    80  67  64 SE14      29.87R
ELBOW LAKE     FAIR      81  68  63 SE13      29.82F
WADENA         PTSUNNY   77  64  65 SE10      29.86R
GLENWOOD       CLOUDY    81  64  57 SE13      29.86S
APPLETON       PTSUNNY   84  66  54 SE9       29.80F
BENSON         PTSUNNY   82  68  61 S10       29.82S
ORTONVILLE     PTSUNNY   81  64  57 SE10G17   29.79S
MADISON        PTSUNNY   82  66  57 SE10      29.80S
WILLMAR        FAIR      82  66  57 SE9       29.84F
$$
MNZ033>034-036-042>043-049>051-058-059-202100-
   Central Minnesota

CITY           SKY/WX    TMP DP  RH WIND       PRES   REMARKS
ST CLOUD       PTSUNNY   81  63  54 S8        29.86S
SAUK CENTRE    MOCLDY   N/A N/A N/A SE8       29.86S
PAYNESVILLE    CLOUDY    77  64  64 E9        29.85F HAZE
AITKIN         PTSUNNY   79  64  61 SE3       29.88R
PINE RIVER     PTSUNNY   75  64  69 E7        29.91R
BRAINERD       PTSUNNY   75  63  66 VRB6      29.88S
STAPLES        PTSUNNY   77  63  61 SE6       29.86S
LONG PRAIRIE   PTSUNNY   79  64  61 E9        29.87S
LITTLE FALLS   PTSUNNY   77  61  57 SE7       29.87R
LITCHFIELD     CLOUDY    84  68  58 SE8       29.84F
BUFFALO        PTSUNNY   80  62  55 SE5       29.87S
MAPLE LAKE     CLOUDY    81  67  63 SE3       29.87S
$$
MNZ037-044-045-052-053-202100-
   East Central Minnesota

CITY           SKY/WX    TMP DP  RH WIND       PRES   REMARKS
PRINCETON      PTSUNNY   79  64  61 E5        29.87S
MORA           PTSUNNY   73  61  64 CALM      29.89F
CAMBRIDGE      PTSUNNY   79  63  57 SE3       29.86S
RUSH CITY      PTSUNNY   76  64  65 E6        29.88F
MOOSE LAKE     CLOUDY    73  61  64 CALM      29.88R
HINCKLEY       CLOUDY    73  63  68 S5        29.90S
CLOQUET        CLOUDY    70  57  64 SE3       29.91R
MCGREGOR       CLOUDY    72  61  68 SE6       29.90R
$$
MNZ071>073-080-081-089-090-097-098-202100-
   Southwest Minnesota

CITY           SKY/WX    TMP DP  RH WIND       PRES   REMARKS
MONTEVIDEO     PTSUNNY   84  68  58 S13       29.81F
GRANITE FALLS  PTSUNNY   82  66  58 SE12      29.82F
CANBY          PTSUNNY   82  68  62 E10       29.80S
MARSHALL       PTSUNNY   82  64  54 SE13G20   29.79F
REDWOOD FALLS  MOSUNNY   84  64  50 SE13      29.82S
OLIVIA         PTSUNNY   81  64  57 SE8       29.82F
PIPESTONE      PTSUNNY   81  66  61 S9        29.82R
WINDOM         MOSUNNY   81  66  61 SE9       29.83F
WORTHINGTON    MOSUNNY   81  19  10 S13G18    29.85S
JACKSON        PTSUNNY   79  64  61 SE10      29.85S
TRACY          PTSUNNY   80  67  64 SE8       29.82S
SLAYTON        MOSUNNY   79  68  68 E5        29.82F
$$
MNZ065>067-074>077-082>085-091>093-202100-
   South Central Minnesota

CITY           SKY/WX    TMP DP  RH WIND       PRES   REMARKS
MANKATO        CLOUDY    82  66  57 SE9       29.84F
NEW ULM        PTSUNNY   82  66  57 S8        29.83F
FAIRMONT       PTSUNNY   79  64  61 S10       29.84F
GLENCOE        CLOUDY    84  61  46 SE7       29.84S
FARIBAULT      PTSUNNY   84  61  45 CALM      29.86S
OWATONNA       MOSUNNY   82  66  57 S6        29.86F
WASECA         PTSUNNY   79  61  53 SE6       29.87F
ALBERT LEA     MOSUNNY   82  66  57 S9        29.86F
$$
MNZ078>079-086>088-094>096-202100-
   Southeast Minnesota

CITY           SKY/WX    TMP DP  RH WIND       PRES   REMARKS
ROCHESTER      PTSUNNY   79  66  64 S3        29.88F
RED WING       SUNNY     81  64  57 S6        29.85F
STANTON        MOSUNNY   81  64  56 S3        29.85S
DODGE CENTER   MOSUNNY   79  68  69 CALM      29.87F
WINONA         MOSUNNY   79  66  65 NE3       29.86S
AUSTIN         PTSUNNY   81  64  57 SE6       29.86S
PRESTON        PTSUNNY   81  71  71 SW3       29.89S
$$
ABBREVIATIONS USED IN REMARKS
   TC - TEMPERATURES IN CELSIUS
  WCI - WIND CHILL INDEX
   HX - HEAT INDEX
  VSB - VISIBILITY
$$



USA.gov is the U.S. government's official web portal to all federal, state and local government web resources and services.